This is the latest recevied weather packets stored in our database for station/object KI4BSX. If no packets are shown the sender has not sent any weather packets the latest 10 day(s).
| Time | Temp. | Humidity | Pressure | Rain* | Wind** | Luminosity | Snow |
|---|---|---|---|---|---|---|---|
| 1777822827 | 16.67° C | 57% | 1023.1 hPa | 0 mm | - | - | - |
| 1777822525 | 16.67° C | 58% | 1023.3 hPa | 0 mm | - | - | - |
| 1777822222 | 17.22° C | 59% | 1023 hPa | 0 mm | - | - | - |
| 1777821920 | 17.22° C | 60% | 1023.1 hPa | 0 mm | - | - | - |
| 1777821617 | 16.11° C | 61% | 1023.1 hPa | 0 mm | - | - | - |
| 1777821316 | 16.11° C | 62% | 1023.1 hPa | 0 mm | - | - | - |
| 1777821012 | 15.56° C | 64% | 1023.3 hPa | 0 mm | - | - | - |
| 1777820709 | 15.56° C | 67% | 1023.3 hPa | 0 mm | - | - | - |
| 1777820404 | 16.11° C | 68% | 1023.2 hPa | 0 mm | - | - | - |
| 1777820102 | 15.56° C | 71% | 1023.3 hPa | 0 mm | - | - | - |
| 1777819799 | 16.11° C | 73% | 1023 hPa | 0 mm | - | - | - |
| 1777819496 | 15.56° C | 76% | 1023.1 hPa | 0 mm | - | - | - |
| 1777819194 | 15.56° C | 79% | 1023 hPa | 0 mm | - | - | - |
| 1777818891 | 15.56° C | 80% | 1023.1 hPa | 0 mm | - | - | - |
| 1777818586 | 15.56° C | 83% | 1023.1 hPa | 0 mm | - | - | - |
| 1777818284 | 15.56° C | 85% | 1023 hPa | 0 mm | - | - | - |
| 1777817980 | 15° C | 88% | 1023.1 hPa | 0 mm | - | - | - |
| 1777817678 | 14.44° C | 89% | 1023.2 hPa | 0 mm | - | - | - |
| 1777817375 | 13.89° C | 90% | 1023.1 hPa | 0 mm | - | - | - |
| 1777817072 | 13.33° C | 92% | 1023.1 hPa | 0 mm | - | - | - |
| 1777816767 | 13.33° C | 92% | 1023.1 hPa | 0 mm | - | - | - |
| 1777816466 | 13.33° C | 93% | 1023.1 hPa | 0 mm | - | - | - |
| 1777816158 | 13.33° C | 93% | 1022.9 hPa | 0 mm | - | - | - |
| 1777815856 | 13.89° C | 93% | 1023 hPa | 0 mm | - | - | - |
| 1777815553 | 13.89° C | 95% | 1022.9 hPa | 0 mm | - | - | - |
* Rain latest hour (hover to see other rain measurements)
** Current wind speed in m/s (hover to see current wind gust speed)